Regional Weather Roundup
Issued by NWS

Home | Current Version | Previous Version | Graphics & Text | Print | Product List | Glossary On
Versions: 1 2 3 4 5 6 7 8 9 10 11 12 13 14 15 16 17 18 19 20 21 22 23 24 25 26 27
000
ASUS45 KTFX 301910
RWRMT
MONTANA REGIONAL WEATHER ROUNDUP
NATIONAL WEATHER SERVICE GREAT FALLS MT
100 PM MDT MON MAY 30 2016

NOTE: "FAIR" INDICATES FEW OR NO CLOUDS BELOW 12000 FEET WITH NO
SIGNIFICANT WEATHER AND/OR OBSTRUCTIONS TO VISIBILITY.

MTZ001>007-043-302000-
WEST OF THE DIVIDE

CITY           SKY/WX    TMP DP  RH WIND       PRES   REMARKS
KALISPELL      CLOUDY    58  39  49 S7        30.17R
MISSOULA       SUNNY     65  32  29 N13G22    30.15F
BUTTE          SUNNY     58  21  24 NW17G26   30.14S
MULLAN PASS    SUNNY     49  30  48 VRB5      30.23R
ANACONDA         N/A     59  25  27 W14G22    30.13S
DEER LODGE       N/A     57  30  35 NW21G28   30.14S
EUREKA           N/A     57  37  47 W3        30.19F
HAMILTON         N/A     63  28  27 NE7       30.16R
LIBBY            N/A     63  36  36 NW5       30.18S
$$

MTZ008-052>055-302000-
SOUTHWEST MONTANA

CITY           SKY/WX    TMP DP  RH WIND       PRES   REMARKS
BOZEMAN        MOSUNNY   63  35  35 NW13      30.08S
DILLON         CLOUDY    63  29  27 W17G23    30.12R
W YELLOWSTONE  MOSUNNY   57  27  30 W12G21    30.13S
ENNIS          MOSUNNY   61  28  29 W13       30.17S
$$

MTZ009-010-012-014-046-048-049-054-302000-
EAST SLOPES AND CENTRAL MONTANA

CITY           SKY/WX    TMP DP  RH WIND       PRES   REMARKS
CUT BANK       PTSUNNY   53  35  50 NW25G35   30.13S
GREAT FALLS    PTSUNNY   57  37  47 NW16      30.13S
MALMSTROM AFB  CLOUDY    55  38  53 NW21G30   30.13R
HELENA         PTSUNNY   63  28  26 NW20G29   30.10S
CHOTEAU          N/A     57  34  41 N23G29    30.15S
$$

MTZ011-013-016-021-045-047-050-051-302000-
NORTH CENTRAL MONTANA

CITY           SKY/WX    TMP DP  RH WIND       PRES   REMARKS
HAVRE          LGT RAIN  48  42  80 W22G36    30.06R
LEWISTOWN      CLOUDY    50  42  74 NW17G25   30.11S
N BAR RANCH    PTSUNNY   50  43  76 NW21G30   30.09F
CHINOOK          N/A     52  43  71 W23G31    30.03R
$$

MTZ017>020-022>027-061-062-302000-
NORTHEAST MONTANA

CITY           SKY/WX    TMP DP  RH WIND       PRES   REMARKS
GLASGOW        CLOUDY    59  46  62 W21G28    29.96R
JORDAN           N/A     54  49  83 NW21G28   29.99R
SIDNEY         RAIN      58  53  84 CALM      29.93S
WOLF POINT     LGT RAIN  58  53  84 NW6       29.94S
POPLAR           N/A     57  54  88 CALM      29.95R VSB 3/4
$$

MTZ028>42-056>058-302000-
SOUTHCENTRAL AND SOUTHEAST MONTANA

CITY           SKY/WX    TMP DP  RH WIND       PRES   REMARKS
BAKER          LGT RAIN  58  53  84 N9        29.94F
BILLINGS       CLOUDY    61  43  51 NW12G18   30.01R
LIVINGSTON     CLOUDY    59  40  49 NW12      30.06S
MILES CITY     CLOUDY    65  49  56 VRB3      29.94F
FORSYTH          N/A     66  48  52 W6        29.94F
$$

REGIONAL REPORTS...DAKOTAS

CITY           SKY/WX    TMP DP  RH WIND       PRES   REMARKS
WILLISTON      LGT RAIN  58  52  80 N5        29.94S
MINOT          CLOUDY    72  53  51 W16       29.88S
DICKINSON      LGT RAIN  55  53  93 N9        29.89F
BEACH          LGT RAIN  55  55 100 NE7       29.96S
CROSBY           N/A     64  50  59 S12       29.94R
WATFORD CITY   CLOUDY    55  55 100 NE8       29.92F
BISMARCK       CLOUDY    76  57  51 S9        29.84F
GRAND FORKS    PTSUNNY   80  52  37 SE6       29.86F
FARGO          MOSUNNY   86  50  28 S9        29.86F
BUFFALO SD       N/A     59  52  77 NW22      29.84S
RAPID CITY     CLOUDY    78  53  41 N22       29.82F
$$

REGIONAL REPORTS...WYOMING/IDAHO/WASHINGTON

CITY           SKY/WX    TMP DP  RH WIND       PRES   REMARKS
GILLETTE       CLOUDY    63  46  54 NE14      29.99F
SHERIDAN       CLOUDY    62  48  60 VRB3      30.01F
BUFFALO WY     CLOUDY    59  44  57 N10       30.03F
CODY           PTSUNNY   55  48  76 NE12      30.04F
YELLOWSTONE LA   N/A     53  28  38 W8G16     30.17S
IDAHO FALLS    MOSUNNY   67  41  38 S18G24    30.10F
SALMON         MOSUNNY   63  34  34 N7        30.12F
BOISE          MOSUNNY   69  37  30 NW13      30.15F
SPOKANE        MOSUNNY   63  32  31 W5        30.22S
$$

REGIONAL REPORTS...ALBERTA

CITY           SKY/WX    TMP DP  RH WIND       PRES   REMARKS
EDMONTON       LGT RAIN  48  43  81 NW16G24   30.12R
CALGARY        PTSUNNY   55  37  50 N23G31    30.14S
LETHBRIDGE     PTSUNNY   55  39  54 NW29G39   30.11S
WATERTON GATE    N/A     54  34  47 S6          N/A
CARDSTON         N/A     52  39  62 NW5         N/A
MILK RIVER       N/A     50  39  66 NW26G37     N/A
$$

REGIONAL REPORTS...SASKATCHEWAN

CITY           SKY/WX    TMP DP  RH WIND       PRES   REMARKS
SWIFT CURRENT  PTSUNNY   59  48  67 W15       29.90F
REGINA         CLOUDY    68  48  49 SE8       29.87S
SASKATOON      PTSUNNY   64  48  55 NE14G22   29.96S
CYPRESS HILLS    N/A     41  37  87 W12G23      N/A
VAL MARIE        N/A     54  50  87 W14         N/A
ROCKGLEN         N/A     54  50  87 N3          N/A
$$




USA.gov is the U.S. government's official web portal to all federal, state and local government web resources and services.